星链-34749(STARLINK-34749)

导读

STARLINK-34749是美国于2025年9月19日发射的星链卫星,属于SpaceX公司打造的星链星座系统。星链项目旨在构建全球卫星互联网,为全球偏远地区、海洋空域等信号盲区提供高速低延迟的宽带网络服务,该卫星入轨将进一步扩充星链星座规模,完善全球覆盖能力。

Basic Information
目录编号:
65675
目录名称:
STARLINK-34749
国际标识:
2025-211Z
轨道中心:
EARTH
卫星名称:
星链-34749
卫星全名:
星链-34749(STARLINK-34749)
卫星状态:
在轨 (已飞行350 天)
发射日期:
2025-09-19 UTC
国别 :
美国 (US)
星等 :
--
Orbit Information
数据来源 国际轨道数据 AOE轨道数据
星历时间 2026-09-02T21:06:17+0800
1天前
查看轨道信息
2026-08-30T23:00:00+0800
4天前
查看轨道信息
半长轴 6843.665km 6843.612km
偏心率 0.0001075 0.0000956
轨道倾角 97.283° 97.285°
近地点辐角 100.668° 104.667°
升交点赤经 286.064° 283.187°
平近点角 259.468° 340.769°
近地点 464.792km 464.82km
远地点 466.264km 466.13km
周期 93.906分钟 93.905分钟
每日圈数 15.334504 15.334681
Detailed Information
固有亮度:
5
最大亮度:
2.5
卫星平台:
Starlink V1.0
覆盖范围:
全球
运营商:
太空探索技术公司
运营商所在国:
美国
制造商(研发单位):
太空探索技术公司
制造商所在国:
美国
使用方式:
暂无
Satellite Introduction
Starlink 计划是 SpaceX 推出的全球卫星互联网项目,通过发射低轨道卫星,为全球尤其是偏远地区提供高速、低延迟的互联网服务。自 2019 年起,Starlink 已部署数千颗卫星,旨在缩小全球数字鸿沟,推动互联网普及。该项目还为军事、航空等行业提供通信支持,带来广泛经济效益。
2D Orbit Map
3D Orbit Map
Orbit Altitude Analysis Chart
Orbit Inclination Analysis Chart
Orbit Comprehensive Analysis Chart
View Comprehensive Chart
Conjunction Data List
Event ID Objects TCA Miss Dist (km) Collision Risk Probability Collision Risk Index (CRI) Action
CDM_260902-130105-314306-567521
2026-09-02T
13:01:27+0000
0.594 km
远距离
1.340412E-4 高风险 0.78
CDM_260902-121405-314306-567521
2026-09-02T
12:14:28+0000
1.128 km
极远距离
1.779966E-5 中风险 0.6
CDM_260905-083603-803906-567521
2026-09-05T
08:36:38+0000
1.323 km
极远距离
1.036766E-5 中风险 0.55
CDM_260903-220506-542606-567521
2026-09-03T
22:05:47+0000
2.484 km
极远距离
1.76491E-6 低风险 0.4
CDM_260905-052705-363606-567521
2026-09-05T
05:27:29+0000
2.569 km
极远距离
1.653158E-6 低风险 0.39